Location: Bukit Lungun
(2.6833°N, 113.9667°E)
Time: 14:08:56
(UTC+00:00)

CZ-4B R/B - Pass Details

Date: 02 March 2021
Orbit: 388 x 454 km, 97.6° (Epoch: 20 April)

Event Time Altitude Azimuth Distance (km) Brightness Sun altitude
Rises 21:52:16 0° 159° (SSE) 2,425 5.5 -11.2°
Reaches altitude 10° 21:54:22 10° 153° (SSE) 1,543 4.6 -10.7°
Maximum altitude 21:57:32 44° 79° (E) 598 2.6 -9.9°
Drops below altitude 10° 22:00:33 11° 5° (N) 1,472 4.0 -9.1°
Sets 22:02:38 0° 359° (N) 2,348 5.0 -8.6°
